Location: *
(42.5628°N, 2.3633°E)
Time: 09:19:44
(UTC+00:00)

Cosmos 1953 - Pass Details

Date: 30 March 2020
Orbit: 539 x 558 km, 82.5° (Epoch: 03 June)

Event Time Altitude Azimuth Distance (km) Brightness Sun altitude
Exits shadow 20:21:06 25° 209° (SSW) 1,105 3.8 -22.8°
Maximum altitude 20:23:12 58° 280° (W) 635 2.8 -23.2°
Drops below altitude 10° 20:27:08 10° 0° (N) 1,814 5.3 -23.8°
Sets 20:29:20 0° 5° (N) 2,713 6.2 -24.2°
